Weather History for Dubuque, IA

Change the Weather History Date:

Saturday, June 1, 2013

  Actual Average Record
Temperature  
Mean Temperature 66 °F 64 °F  
Max Temperature 73 °F 74 °F 102 °F (1934)
Min Temperature 59 °F 54 °F 37 °F (1993)
Degree Days  
Heating Degree Days 0 3  
Month to date heating degree days 0 3  
Since 1 June heating degree days 0 3  
Since 1 July heating degree days 7257 7049  
Cooling Degree Days 1 2  
Month to date cooling degree days 1 2  
Year to date cooling degree days 46 39  
Since 1 June cooling degree days 1 2  
Growing Degree Days 16 (Base 50)    
Moisture  
Dew Point 62 °F    
Average Humidity 77    
Maximum Humidity 100    
Minimum Humidity 53    
Precipitation  
Precipitation 0.00 in 0.15 in 1.72 in (1919)
Month to date precipitation 0.00 0.15  
Year to date precipitation 21.58 13.02  
Snow  
Snow 0.00 in 0.00 in - ()
Month to date snowfall 0.0 0.0  
Since 1 June snowfall 0.0 0.0  
Since 1 July snowfall 54.5 41.9  
Snow Depth 0.00 in    
Sea Level Pressure  
Sea Level Pressure 29.67 in    
Wind  
Wind Speed 11 mph (SW)    
Max Wind Speed 20 mph    
Max Gust Speed 24 mph    
Visibility 9 miles    
Events      
T = Trace of Precipitation, MM = Missing Value Source: NWS Daily Summary

Daily Weather History Graph

Daily Weather History Graph

Search for Another Location

Airport:

Trip Planner

Search our weather history database for the weather conditions in past years. The results will help you decide how hot, cold, wet, or windy it might be!

Date:

Astronomy

Jun. 01, 2013 Rise Set
Actual Time 5:28 AM CDT 8:33 PM CDT
Civil Twilight 4:54 AM CDT 9:07 PM CDT
Nautical Twilight 4:10 AM CDT 9:51 PM CDT
Astronomical Twilight 3:19 AM CDT 10:42 PM CDT
Moon 1:32 AM CDT (6/1) 1:55 PM CDT (6/1)
Length of Visible Light 16h 13m
Length of Day
15h 05m
Last Quarter, 40% of the Moon is Illuminated
Jun 1
Last Quarter
Jun 8
New
Jun 16
First Quarter
Jun 23
Full
Jun 29
Last Quarter

Hourly Weather History & Observations

Time (CDT) Temp. Dew Point Humidity Pressure Visibility Wind Dir Wind Speed Gust Speed Precip Events Conditions
12:15 AM 66.2 °F 64.4 °F 94% 29.66 in 10.0 mi South 9.2 mph - N/A   Scattered Clouds
12:30 AM 64.4 °F 64.4 °F 100% 29.66 in 10.0 mi SSW 8.1 mph - N/A   Scattered Clouds
12:39 AM 66.2 °F 66.2 °F 100% 29.66 in 10.0 mi SSW 9.2 mph - N/A   Mostly Cloudy
12:53 AM 66.0 °F 66.0 °F 100% 29.65 in 10.0 mi SSW 11.5 mph - N/A   Overcast
1:14 AM 66.2 °F 66.2 °F 100% 29.67 in 10.0 mi SW 10.4 mph - N/A   Overcast
1:37 AM 66.2 °F 66.2 °F 100% 29.67 in 10.0 mi SW 9.2 mph - N/A   Overcast
1:53 AM 66.9 °F 66.0 °F 97% 29.66 in 10.0 mi SW 13.8 mph 19.6 mph N/A   Overcast
2:53 AM 64.9 °F 64.9 °F 100% 29.64 in 9.0 mi SW 10.4 mph - N/A   Overcast
3:53 AM 64.0 °F 64.0 °F 100% 29.63 in 7.0 mi South 8.1 mph - N/A   Mostly Cloudy
4:21 AM 62.6 °F 62.6 °F 100% 29.65 in 5.0 mi SSW 6.9 mph - N/A   Scattered Clouds
4:53 AM 61.0 °F 61.0 °F 100% 29.64 in 4.0 mi SSW 5.8 mph - N/A   Partly Cloudy
5:16 AM 62.6 °F 62.6 °F 100% 29.66 in 4.0 mi SSW 8.1 mph - N/A   Mostly Cloudy
5:53 AM 64.0 °F 64.0 °F 100% 29.65 in 5.0 mi SSW 13.8 mph - N/A   Overcast
6:46 AM 64.4 °F 64.4 °F 100% 29.65 in 7.0 mi SSW 9.2 mph - N/A   Overcast
6:53 AM 64.9 °F 64.0 °F 97% 29.64 in 7.0 mi SSW 8.1 mph - N/A   Overcast
7:16 AM 66.2 °F 64.4 °F 94% 29.66 in 7.0 mi SSW 9.2 mph - N/A   Overcast
7:46 AM 66.2 °F 64.4 °F 94% 29.66 in 8.0 mi SW 12.7 mph - N/A   Overcast
7:53 AM 66.0 °F 64.0 °F 93% 29.65 in 9.0 mi SW 10.4 mph - N/A   Overcast
8:15 AM 66.2 °F 64.4 °F 94% 29.67 in 10.0 mi SW 10.4 mph - N/A   Mostly Cloudy
8:41 AM 68.0 °F 62.6 °F 83% 29.66 in 10.0 mi SW 13.8 mph - N/A   Mostly Cloudy
8:53 AM 66.9 °F 62.1 °F 84% 29.66 in 10.0 mi SW 12.7 mph - N/A   Mostly Cloudy
9:26 AM 68.0 °F 62.6 °F 83% 29.67 in 10.0 mi SW 13.8 mph - N/A   Scattered Clouds
9:53 AM 68.0 °F 61.0 °F 78% 29.66 in 10.0 mi SW 12.7 mph 19.6 mph N/A   Partly Cloudy
10:53 AM 69.1 °F 61.0 °F 75% 29.67 in 10.0 mi SW 15.0 mph - N/A   Partly Cloudy
11:53 AM 72.0 °F 57.9 °F 61% 29.66 in 10.0 mi SSW 16.1 mph - N/A   Partly Cloudy
12:53 PM 71.1 °F 57.9 °F 63% 29.67 in 10.0 mi SW 10.4 mph 23.0 mph N/A   Clear
1:53 PM 72.0 °F 54.0 °F 53% 29.67 in 10.0 mi WSW 15.0 mph 23.0 mph N/A   Clear
2:53 PM 72.0 °F 57.0 °F 59% 29.67 in 10.0 mi WSW 11.5 mph 23.0 mph N/A   Clear
3:53 PM 69.1 °F 55.9 °F 63% 29.67 in 10.0 mi WSW 13.8 mph - N/A   Scattered Clouds
4:53 PM 66.9 °F 57.0 °F 70% 29.69 in 10.0 mi West 17.3 mph - N/A   Partly Cloudy
5:53 PM 66.0 °F 55.9 °F 70% 29.69 in 10.0 mi West 12.7 mph - N/A   Mostly Cloudy
6:53 PM 64.9 °F 55.9 °F 73% 29.70 in 10.0 mi West 11.5 mph - N/A   Mostly Cloudy
7:53 PM 64.9 °F 57.9 °F 78% 29.71 in 10.0 mi West 11.5 mph - N/A   Mostly Cloudy
8:53 PM 63.0 °F 57.9 °F 84% 29.72 in 10.0 mi WNW 8.1 mph - N/A   Overcast
9:53 PM 63.0 °F 57.9 °F 84% 29.74 in 10.0 mi West 8.1 mph - N/A   Overcast
10:53 PM 60.1 °F 59.0 °F 96% 29.75 in 10.0 mi WSW 5.8 mph - N/A   Clear
11:53 PM 61.0 °F 60.1 °F 97% 29.76 in 9.0 mi WNW 9.2 mph - N/A   Overcast